Overview Statistics Trail Chart Weather Telemetry Raw packets
 

This is the latest recevied weather packets stored in our database for station/object N0KWA. If no packets are shown the sender has not sent any weather packets the latest 10 day(s).

<< 14 15 16 17 18 19 20 >>
Time Temp. Humidity Pressure Rain* Wind** Luminosity Snow
1788463630 32.78° C 70% 1015.9 hPa 0 mm - 29 W/m² -
1788463325 32.78° C 75% 1016 hPa 0 mm - 38 W/m² -
1788463022 32.78° C 72% 1016.1 hPa 0 mm - 51 W/m² -
1788462722 32.78° C 69% 1016 hPa 0 mm - 29 W/m² -
1788462417 32.78° C 70% 1016.3 hPa 0 mm - 27 W/m² -
1788462116 32.22° C 73% 1016.3 hPa 0 mm - 39 W/m² -
1788461812 32.22° C 73% 1016.4 hPa 0 mm - 39 W/m² -
1788461507 32.22° C 71% 1016.5 hPa 0 mm - 55 W/m² -
1788461203 32.22° C 71% 1016.5 hPa 0 mm - 44 W/m² -
1788460920 32.78° C 75% 1016.6 hPa 0 mm - 60 W/m² -
1788460597 32.78° C 69% 1016.6 hPa 0 mm - 54 W/m² -
1788460292 32.78° C 68% 1016.5 hPa 0 mm - 41 W/m² -
1788459991 32.78° C 71% 1016.7 hPa 0 mm - 44 W/m² -
1788459688 32.22° C 73% 1016.5 hPa 0 mm - 99 W/m² -
1788459391 32.22° C 78% 1016.9 hPa 0 mm - 629 W/m² -
1788459080 32.22° C 75% 1017 hPa 0 mm - 51 W/m² -
1788458776 32.78° C 71% 1017 hPa 0 mm - 30 W/m² -
1788458470 32.78° C 71% 1017.1 hPa 0 mm - 69 W/m² -
1788458169 32.22° C 73% 1017.1 hPa 0 mm - 35 W/m² -
1788457869 32.22° C 72% 1017.1 hPa 0 mm - 259 W/m² -
1788457564 32.22° C 70% 1017.3 hPa 0 mm - 35 W/m² -
1788457258 32.22° C 74% 1017.5 hPa 0 mm - 33 W/m² -
1788456953 31.67° C 76% 1017.4 hPa 0 mm - 34 W/m² -
1788456650 31.67° C 76% 1017.8 hPa 0 mm - 111 W/m² -
1788456350 31.67° C 74% 1017.6 hPa 0 mm - 138 W/m² -

* Rain latest hour (hover to see other rain measurements)
** Current wind speed in m/s (hover to see current wind gust speed)